Ohio State University, OH

12:56 AM EST on December 12, 2017 (GMT -0500)
Ohio State University

Weather History for KOSU - June, 2013

Change the Weather History Date:

Friday, June 14, 2013

  Actual Average Record
Temperature  
Mean Temperature 67 °F -  
Max Temperature 77 °F 77 °F 90 °F (2001)
Min Temperature 59 °F 58 °F 48 °F (2012)
Cooling Degree Days 2    
Growing Degree Days 17 (Base 50)    
Moisture  
Dew Point 56 °F    
Average Humidity 68    
Maximum Humidity 90    
Minimum Humidity 50    
Precipitation  
Precipitation 0.00 in - - ()
Sea Level Pressure  
Sea Level Pressure 30.00 in    
Wind  
Wind Speed 7 mph (North)    
Max Wind Speed 15 mph    
Max Gust Speed 20 mph    
Visibility 10 miles    
Events      
Averages and records for this station are not official NWS values.
T = Trace of Precipitation, MM = Missing Value Source: NWS Daily Summary

Daily Weather History Graph

Daily Weather History Graph

Search for Another Location

Airport or City:

Trip Planner

Search our weather history database for the weather conditions in past years. The results will help you decide how hot, cold, wet, or windy it might be!

Date:

Astronomy

Jun. 14, 2013 Rise Set
Actual Time 6:02 AM EDT 9:02 PM EDT
Civil Twilight 5:29 AM EDT 9:35 PM EDT
Nautical Twilight 4:48 AM EDT 10:17 PM EDT
Astronomical Twilight 3:59 AM EDT 11:06 PM EDT
Moon 11:36 AM EDT (6/14) 12:08 AM EDT (6/14)
Length of Visible Light 16h 05m
Length of Day
15h 00m
Waxing Crescent, 30% of the Moon is Illuminated
Jun 14
Waxing Crescent
Jun 16
First Quarter
Jun 23
Full
Jun 30
Last Quarter
Jul 8
New

Hourly Weather History & Observations

Time (EDT) Temp. Dew Point Humidity Pressure Visibility Wind Dir Wind Speed Gust Speed Precip Events Conditions
12:53 AM 63.0 °F 55.9 °F 78% 29.90 in 10.0 mi North 5.8 mph - N/A   Clear
1:53 AM 61.0 °F 57.0 °F 87% 29.92 in 10.0 mi NW 4.6 mph - N/A   Mostly Cloudy
2:53 AM 61.0 °F 55.9 °F 83% 29.91 in 10.0 mi NNW 5.8 mph - N/A   Partly Cloudy
3:53 AM 61.0 °F 55.9 °F 83% 29.91 in 10.0 mi NW 6.9 mph - N/A   Clear
4:53 AM 60.1 °F 55.9 °F 86% 29.91 in 10.0 mi NW 5.8 mph - N/A   Clear
5:53 AM 59.0 °F 55.9 °F 90% 29.92 in 10.0 mi NW 6.9 mph - N/A   Clear
6:53 AM 61.0 °F 55.9 °F 83% 29.96 in 10.0 mi NNW 6.9 mph - N/A   Clear
7:53 AM 64.0 °F 55.9 °F 75% 29.97 in 10.0 mi North 10.4 mph - N/A   Clear
8:53 AM 66.0 °F 57.0 °F 73% 29.99 in 10.0 mi North 11.5 mph - N/A   Partly Cloudy
9:53 AM 69.1 °F 57.0 °F 65% 30.02 in 10.0 mi North 10.4 mph - N/A   Scattered Clouds
10:53 AM 70.0 °F 55.9 °F 61% 30.02 in 10.0 mi North 10.4 mph 18.4 mph N/A   Scattered Clouds
11:53 AM 72.0 °F 55.9 °F 57% 30.04 in 10.0 mi NW 15.0 mph 19.6 mph N/A   Scattered Clouds
12:53 PM 73.0 °F 55.9 °F 55% 30.04 in 10.0 mi North 15.0 mph 18.4 mph N/A   Scattered Clouds
1:53 PM 73.9 °F 55.9 °F 53% 30.04 in 10.0 mi NNW 6.9 mph - N/A   Scattered Clouds
2:53 PM 75.0 °F 55.0 °F 50% 30.02 in 10.0 mi North 11.5 mph 18.4 mph N/A   Scattered Clouds
3:53 PM 73.9 °F 54.0 °F 50% 30.01 in 10.0 mi NNW 11.5 mph 16.1 mph N/A   Mostly Cloudy
4:53 PM 75.0 °F 55.0 °F 50% 30.01 in 10.0 mi NNE 9.2 mph - N/A   Mostly Cloudy
5:53 PM 73.9 °F 55.0 °F 52% 30.02 in 10.0 mi NNE 9.2 mph - N/A   Mostly Cloudy
6:53 PM 73.9 °F 55.0 °F 52% 30.03 in 10.0 mi NNE 5.8 mph - N/A   Partly Cloudy
7:53 PM 72.0 °F 55.0 °F 55% 30.03 in 10.0 mi North 6.9 mph - N/A   Clear
8:53 PM 66.9 °F 55.0 °F 66% 30.04 in 10.0 mi NNE 5.8 mph - N/A   Clear
9:53 PM 64.9 °F 55.0 °F 70% 30.05 in 10.0 mi NNE 5.8 mph - N/A   Clear
10:53 PM 63.0 °F 55.9 °F 78% 30.06 in 10.0 mi NNE 5.8 mph - N/A   Clear
11:53 PM 61.0 °F 55.0 °F 81% 30.07 in 10.0 mi Calm Calm - N/A   Clear